| time (UTC) | temp F | wind direction | speed MPH | gust MPH | rain 1hr in | rain 24hr in | rain mn in | humidity % | barometer mb |
| 20260901104530 | 80 | 198 | 0.0 | 4.0 | 0.00 | 0.00 | 0.00 | 86 | 1012.7 |
| 20260901103032 | 80 | 200 | 0.0 | 3.0 | 0.00 | 0.00 | 0.00 | 86 | 1012.6 |
| 20260901101532 | 80 | 210 | 0.0 | 1.0 | 0.00 | 0.00 | 0.00 | 86 | 1012.7 |
| 20260901100028 | 81 | 192 | 0.0 | 2.0 | 0.00 | 0.00 | 0.00 | 85 | 1012.8 |
| 20260901094528 | 81 | 213 | 1.0 | 3.0 | 0.00 | 0.00 | 0.00 | 85 | 1012.7 |
| 20260901093026 | 81 | 213 | 0.0 | 2.0 | 0.00 | 0.00 | 0.00 | 85 | 1012.7 |
| 20260901091525 | 81 | 209 | 0.0 | 5.0 | 0.00 | 0.00 | 0.00 | 85 | 1012.7 |
| 20260901090024 | 81 | 230 | 1.0 | 5.0 | 0.00 | 0.00 | 0.00 | 84 | 1012.6 |
| 20260901084522 | 81 | 212 | 0.0 | 4.0 | 0.00 | 0.00 | 0.00 | 83 | 1012.8 |
| 20260901083021 | 82 | 221 | 0.0 | 4.0 | 0.00 | 0.00 | 0.00 | 83 | 1012.8 |
| 20260901081519 | 82 | 202 | 1.0 | 5.0 | 0.00 | 0.00 | 0.00 | 83 | 1013.0 |
| 20260901080017 | 82 | 232 | 1.0 | 5.0 | 0.00 | 0.00 | 0.00 | 83 | 1013.0 |
| 20260901074515 | 83 | 178 | 1.0 | 5.0 | 0.00 | 0.00 | 0.00 | 83 | 1013.0 |
| 20260901073016 | 83 | 200 | 2.0 | 8.0 | 0.00 | 0.00 | 0.00 | 82 | 1012.9 |
| 20260901071522 | 83 | 207 | 1.0 | 6.0 | 0.00 | 0.00 | 0.00 | 82 | 1013.1 |
| 20260901070020 | 83 | 188 | 3.0 | 9.0 | 0.00 | 0.00 | 0.00 | 82 | 1013.2 |
| 20260901064514 | 83 | 169 | 3.0 | 6.0 | 0.00 | 0.00 | 0.00 | 81 | 1013.3 |
| 20260901063007 | 83 | 188 | 2.0 | 6.0 | 0.00 | 0.00 | 0.00 | 81 | 1013.4 |
| 20260901061507 | 83 | 188 | 4.0 | 7.0 | 0.00 | 0.00 | 0.00 | 81 | 1013.5 |
| 20260901060005 | 83 | 201 | 3.0 | 6.0 | 0.00 | 0.00 | 0.00 | 81 | 1013.6 |
| 20260901054510 | 84 | 168 | 3.0 | 6.0 | 0.00 | 0.00 | 0.00 | 81 | 1013.5 |
| 20260901053003 | 84 | 190 | 2.0 | 6.0 | 0.00 | 0.00 | 0.00 | 81 | 1013.6 |
| 20260901051501 | 84 | 192 | 3.0 | 6.0 | 0.00 | 0.00 | 0.00 | 80 | 1013.5 |
| 20260901050059 | 84 | 202 | 3.0 | 10.0 | 0.00 | 0.00 | 0.00 | 80 | 1013.6 |
| 20260901044608 | 84 | 195 | 3.0 | 7.0 | 0.00 | 0.00 | 0.00 | 80 | 1013.7 |
| 20260901043057 | 85 | 168 | 4.0 | 8.0 | 0.00 | 0.00 | 0.00 | 79 | 1013.6 |
| 20260901041559 | 85 | 200 | 3.0 | 7.0 | 0.00 | 0.00 | 0.00 | 79 | 1013.7 |
| 20260901040110 | 85 | 173 | 4.0 | 8.0 | 0.00 | 0.00 | 0.00 | 79 | 1013.6 |
| 20260901034608 | 85 | 195 | 3.0 | 9.0 | 0.00 | 0.00 | 0.00 | 79 | 1013.6 |
| 20260901033057 | 85 | 177 | 4.0 | 9.0 | 0.00 | 0.00 | 0.00 | 79 | 1013.5 |
| 20260901031554 | 85 | 168 | 3.0 | 12.0 | 0.00 | 0.00 | 0.00 | 79 | 1013.4 |
| 20260901030055 | 85 | 176 | 4.0 | 10.0 | 0.00 | 0.00 | 0.00 | 79 | 1013.2 |
| 20260901024555 | 85 | 166 | 4.0 | 12.0 | 0.00 | 0.00 | 0.00 | 78 | 1013.0 |
| 20260901023104 | 86 | 148 | 4.0 | 10.0 | 0.00 | 0.00 | 0.00 | 78 | 1012.8 |
| 20260901021554 | 86 | 180 | 6.0 | 13.0 | 0.00 | 0.00 | 0.00 | 77 | 1012.6 |
| 20260901020051 | 86 | 157 | 6.0 | 11.0 | 0.00 | 0.00 | 0.00 | 77 | 1012.5 |
| 20260901014557 | 86 | 212 | 8.0 | 13.0 | 0.00 | 0.00 | 0.00 | 76 | 1012.0 |
| 20260901013050 | 86 | 118 | 6.0 | 11.0 | 0.00 | 0.00 | 0.00 | 75 | 1011.9 |
| 20260901011550 | 86 | 190 | 4.0 | 14.0 | 0.00 | 0.00 | 0.00 | 75 | 1011.8 |
| 20260901010049 | 87 | 177 | 7.0 | 14.0 | 0.00 | 0.00 | 0.00 | 74 | 1011.7 |
| 20260901004551 | 87 | 157 | 9.0 | 17.0 | 0.00 | 0.00 | 0.00 | 73 | 1011.5 |
| 20260901003048 | 87 | 172 | 8.0 | 16.0 | 0.00 | 0.00 | 0.00 | 73 | 1011.3 |
| 20260901001547 | 88 | 135 | 6.0 | 18.0 | 0.00 | 0.00 | 0.00 | 73 | 1011.3 |
| 20260901000047 | 88 | 163 | 9.0 | 17.0 | 0.00 | 0.00 | 0.00 | 72 | 1011.3 |
| 20260831234546 | 89 | 127 | 7.0 | 13.0 | 0.00 | 0.00 | 0.00 | 72 | 1011.4 |
| 20260831233044 | 89 | 171 | 7.0 | 18.0 | 0.00 | 0.00 | 0.00 | 71 | 1011.4 |
| 20260831231545 | 90 | 122 | 8.0 | 17.0 | 0.00 | 0.00 | 0.00 | 70 | 1011.6 |
| 20260831230043 | 90 | 109 | 7.0 | 16.0 | 0.00 | 0.00 | 0.00 | 70 | 1011.6 |
| 20260831224542 | 91 | 82 | 5.0 | 14.0 | 0.00 | 0.00 | 0.00 | 69 | 1011.5 |
| 20260831223042 | 91 | 153 | 7.0 | 16.0 | 0.00 | 0.00 | 0.00 | 69 | 1011.6 |
| 20260831221542 | 91 | 180 | 5.0 | 16.0 | 0.00 | 0.00 | 0.00 | 70 | 1011.7 |
| 20260831220039 | 91 | 171 | 6.0 | 14.0 | 0.00 | 0.00 | 0.00 | 70 | 1011.8 |
| 20260831214539 | 92 | 98 | 5.0 | 13.0 | 0.00 | 0.00 | 0.00 | 71 | 1011.9 |
| 20260831213037 | 92 | 96 | 5.0 | 12.0 | 0.00 | 0.00 | 0.00 | 68 | 1012.0 |
| 20260831211539 | 93 | 208 | 4.0 | 13.0 | 0.00 | 0.00 | 0.00 | 65 | 1012.0 |
| 20260831210036 | 93 | 140 | 5.0 | 13.0 | 0.00 | 0.00 | 0.00 | 65 | 1012.0 |
| 20260831204535 | 93 | 167 | 5.0 | 15.0 | 0.00 | 0.00 | 0.00 | 64 | 1012.2 |
| 20260831203032 | 93 | 155 | 6.0 | 14.0 | 0.00 | 0.00 | 0.00 | 65 | 1012.4 |
| 20260831201532 | 94 | 103 | 5.0 | 13.0 | 0.00 | 0.00 | 0.00 | 64 | 1012.6 |
| 20260831200041 | 94 | 115 | 8.0 | 16.0 | 0.00 | 0.00 | 0.00 | 62 | 1012.6 |
| 20260831194532 | 94 | 150 | 5.0 | 15.0 | 0.00 | 0.00 | 0.00 | 64 | 1012.8 |
| 20260831193037 | 94 | 114 | 7.0 | 15.0 | 0.00 | 0.00 | 0.00 | 62 | 1013.1 |
| 20260831191535 | 94 | 107 | 6.0 | 13.0 | 0.00 | 0.00 | 0.00 | 64 | 1013.3 |
| 20260831190029 | 95 | 150 | 7.0 | 15.0 | 0.00 | 0.00 | 0.00 | 59 | 1013.3 |
| 20260831184528 | 95 | 159 | 8.0 | 18.0 | 0.00 | 0.01 | 0.00 | 58 | 1013.3 |
| 20260831183026 | 96 | 118 | 7.0 | 17.0 | 0.00 | 0.01 | 0.00 | 55 | 1013.3 |
| 20260831181526 | 96 | 118 | 8.0 | 15.0 | 0.00 | 0.01 | 0.00 | 56 | 1013.5 |
| 20260831180039 | 96 | 216 | 6.0 | 17.0 | 0.00 | 0.01 | 0.00 | 56 | 1013.5 |
| 20260831174525 | 96 | 172 | 8.0 | 15.0 | 0.00 | 0.03 | 0.00 | 56 | 1013.5 |
| 20260831173023 | 97 | 136 | 5.0 | 16.0 | 0.00 | 0.03 | 0.00 | 55 | 1013.7 |
| 20260831171521 | 97 | 133 | 6.0 | 12.0 | 0.00 | 0.03 | 0.00 | 55 | 1013.9 |
| 20260831170018 | 97 | 145 | 5.0 | 13.0 | 0.00 | 0.03 | 0.00 | 51 | 1013.8 |
| 20260831164530 | 96 | 167 | 3.0 | 14.0 | 0.00 | 0.03 | 0.00 | 53 | 1013.8 |
| 20260831163012 | 96 | 142 | 4.0 | 14.0 | 0.00 | 0.03 | 0.00 | 54 | 1013.9 |
| 20260831161507 | 95 | 207 | 5.0 | 11.0 | 0.00 | 0.03 | 0.00 | 55 | 1013.9 |
| 20260831160004 | 94 | 156 | 6.0 | 11.0 | 0.00 | 0.03 | 0.00 | 57 | 1014.0 |
| 20260831154605 | 93 | 180 | 7.0 | 16.0 | 0.00 | 0.03 | 0.00 | 59 | 1013.8 |
| 20260831153101 | 92 | 187 | 8.0 | 15.0 | 0.00 | 0.03 | 0.00 | 63 | 1013.8 |
| 20260831151557 | 91 | 203 | 7.0 | 14.0 | 0.00 | 0.03 | 0.00 | 66 | 1013.8 |
| 20260831150050 | 90 | 202 | 6.0 | 12.0 | 0.00 | 0.03 | 0.00 | 69 | 1013.8 |
| 20260831144548 | 89 | 184 | 5.0 | 12.0 | 0.00 | 0.03 | 0.00 | 71 | 1013.7 |
| 20260831143050 | 89 | 185 | 5.0 | 10.0 | 0.00 | 0.03 | 0.00 | 74 | 1013.7 |
| 20260831141539 | 87 | 203 | 5.0 | 10.0 | 0.00 | 0.03 | 0.00 | 75 | 1013.9 |
| 20260831140036 | 86 | 196 | 4.0 | 9.0 | 0.00 | 0.03 | 0.00 | 78 | 1013.9 |
| 20260831134533 | 85 | 184 | 5.0 | 10.0 | 0.00 | 0.03 | 0.00 | 80 | 1013.6 |
| 20260831133030 | 84 | 200 | 3.0 | 7.0 | 0.00 | 0.03 | 0.00 | 82 | 1013.5 |
| 20260831131530 | 83 | 193 | 0.0 | 4.0 | 0.00 | 0.03 | 0.00 | 85 | 1013.4 |
| 20260831130029 | 82 | 186 | 0.0 | 0.0 | 0.00 | 0.03 | 0.00 | 86 | 1013.3 |
| 20260831124530 | 81 | 188 | 0.0 | 0.0 | 0.00 | 0.03 | 0.00 | 87 | 1013.1 |
| 20260831123028 | 81 | 188 | 0.0 | 0.0 | 0.00 | 0.03 | 0.00 | 87 | 1013.0 |
| 20260831121528 | 81 | 167 | 0.0 | 0.0 | 0.00 | 0.03 | 0.00 | 87 | 1012.8 |
| 20260831120037 | 81 | 167 | 0.0 | 0.0 | 0.00 | 0.03 | 0.00 | 87 | 1012.6 |
| 20260831114533 | 81 | 188 | 0.0 | 0.0 | 0.00 | 0.03 | 0.00 | 86 | 1012.5 |
| 20260831113027 | 81 | 196 | 0.0 | 0.0 | 0.00 | 0.03 | 0.00 | 86 | 1012.5 |
| 20260831111525 | 81 | 196 | 0.0 | 0.0 | 0.00 | 0.03 | 0.00 | 86 | 1012.3 |
| 20260831110024 | 81 | 196 | 0.0 | 0.0 | 0.00 | 0.03 | 0.00 | 85 | 1012.2 |